N122PC KBCT-MYNN

Flight info

Callsign N122PC
Flight time 0h 52m
Altitude 5000
Route BEECH DCT BAHMA DCT RAJAY
Aircraft AEST/L-DFLORY/C

Departure

Time 2026-05-08 15:32
Airport Boca Raton Airport (KBCT)

Arrival

Time 2026-05-08 16:25
Airport Lynden Pindling International Airport (MYNN)
Time Latitude Longitude Altitude Speed Heading
2026-05-08 15:22 26.38274 -80.10479 22 ft 0 kts 39°
2026-05-08 15:26 26.38281 -80.10470 22 ft 2 kts 86°
2026-05-08 15:26 26.38267 -80.10467 22 ft 2 kts 225°
2026-05-08 15:27 26.38212 -80.10488 22 ft 12 kts 195°
2026-05-08 15:27 26.38147 -80.10548 23 ft 13 kts 219°
2026-05-08 15:27 26.38072 -80.10625 22 ft 16 kts 226°
2026-05-08 15:27 26.37990 -80.10719 19 ft 18 kts 224°
2026-05-08 15:28 26.37903 -80.10815 19 ft 17 kts 223°
2026-05-08 15:28 26.37815 -80.10911 16 ft 18 kts 225°
2026-05-08 15:28 26.37724 -80.11010 16 ft 18 kts 219°
2026-05-08 15:28 26.37639 -80.11101 17 ft 16 kts 224°
2026-05-08 15:29 26.37559 -80.11191 17 ft 16 kts 224°
2026-05-08 15:29 26.37483 -80.11273 20 ft 14 kts 225°
2026-05-08 15:29 26.37440 -80.11315 21 ft 6 kts 205°
2026-05-08 15:29 26.37427 -80.11321 21 ft 0 kts 183°
2026-05-08 15:31 26.37420 -80.11315 21 ft 0 kts 114°
2026-05-08 15:31 26.37410 -80.11299 20 ft 1 kts 142°
2026-05-08 15:31 26.37426 -80.11234 18 ft 17 kts 56°
2026-05-08 15:32 26.37597 -80.11048 16 ft 63 kts 44°
2026-05-08 15:32 26.38033 -80.10562 52 ft 103 kts 43°
2026-05-08 15:32 26.38558 -80.09958 287 ft 114 kts 42°
2026-05-08 15:32 26.39156 -80.09314 638 ft 123 kts 45°
2026-05-08 15:33 26.39537 -80.08451 995 ft 131 kts 84°
2026-05-08 15:33 26.39244 -80.07489 1404 ft 139 kts 127°
2026-05-08 15:33 26.38394 -80.06976 1776 ft 144 kts 169°
2026-05-08 15:33 26.37390 -80.06924 2182 ft 144 kts 178°
2026-05-08 15:34 26.36412 -80.06728 2593 ft 146 kts 152°
2026-05-08 15:34 26.35656 -80.05979 3023 ft 145 kts 134°
2026-05-08 15:34 26.35009 -80.05117 3432 ft 145 kts 126°
2026-05-08 15:34 26.34435 -80.04200 3813 ft 143 kts 126°
2026-05-08 15:35 26.33870 -80.03291 4181 ft 141 kts 126°
2026-05-08 15:35 26.33317 -80.02409 4485 ft 138 kts 127°
2026-05-08 15:35 26.32761 -80.01540 4759 ft 137 kts 126°
2026-05-08 15:35 26.32221 -80.00675 5026 ft 135 kts 125°
2026-05-08 15:36 26.31675 -79.99772 5142 ft 150 kts 124°
2026-05-08 15:36 26.31068 -79.98727 5128 ft 171 kts 123°
2026-05-08 15:36 26.30405 -79.97538 5074 ft 190 kts 122°
2026-05-08 15:36 26.29698 -79.96228 5015 ft 203 kts 121°
2026-05-08 15:37 26.28976 -79.94867 4987 ft 205 kts 121°
2026-05-08 15:37 26.28253 -79.93502 4993 ft 204 kts 121°
2026-05-08 15:37 26.27524 -79.92141 5007 ft 205 kts 121°
2026-05-08 15:37 26.26785 -79.90779 5001 ft 206 kts 122°
2026-05-08 15:38 26.26038 -79.89418 4999 ft 206 kts 122°
2026-05-08 15:38 26.25283 -79.88060 4998 ft 206 kts 122°
2026-05-08 15:38 26.24526 -79.86704 4999 ft 206 kts 122°
2026-05-08 15:38 26.23767 -79.85346 5001 ft 206 kts 122°
2026-05-08 15:39 26.23010 -79.83990 5000 ft 206 kts 122°
2026-05-08 15:39 26.22252 -79.82632 4999 ft 206 kts 122°
2026-05-08 15:39 26.21506 -79.81294 4999 ft 206 kts 122°
2026-05-08 15:39 26.20749 -79.79936 4998 ft 206 kts 122°
2026-05-08 15:40 26.19993 -79.78579 4998 ft 206 kts 122°
2026-05-08 15:40 26.19236 -79.77222 4999 ft 206 kts 122°
2026-05-08 15:40 26.18469 -79.75850 5000 ft 206 kts 122°
2026-05-08 15:40 26.17721 -79.74509 4999 ft 206 kts 122°
2026-05-08 15:41 26.16964 -79.73152 4999 ft 206 kts 122°
2026-05-08 15:41 26.16208 -79.71796 4999 ft 206 kts 122°
2026-05-08 15:41 26.15451 -79.70437 5000 ft 206 kts 122°
2026-05-08 15:41 26.14693 -79.69081 4995 ft 206 kts 122°
2026-05-08 15:42 26.13937 -79.67729 4996 ft 206 kts 122°
2026-05-08 15:42 26.13181 -79.66380 4992 ft 205 kts 122°
2026-05-08 15:42 26.12426 -79.65033 4997 ft 205 kts 122°
2026-05-08 15:42 26.11677 -79.63691 4997 ft 204 kts 122°
2026-05-08 15:43 26.10929 -79.62349 5001 ft 204 kts 122°
2026-05-08 15:43 26.10180 -79.61009 4999 ft 204 kts 122°
2026-05-08 15:43 26.09430 -79.59666 4997 ft 204 kts 122°
2026-05-08 15:43 26.08681 -79.58325 4991 ft 204 kts 122°
2026-05-08 15:44 26.07931 -79.56985 4988 ft 204 kts 122°
2026-05-08 15:44 26.07181 -79.55641 4994 ft 205 kts 122°
2026-05-08 15:44 26.06429 -79.54295 4990 ft 205 kts 123°
2026-05-08 15:44 26.05675 -79.52949 4998 ft 205 kts 123°
2026-05-08 15:45 26.04923 -79.51607 4996 ft 205 kts 123°
2026-05-08 15:45 26.04170 -79.50264 5000 ft 205 kts 123°
2026-05-08 15:45 26.03415 -79.48918 4988 ft 205 kts 123°
2026-05-08 15:45 26.02661 -79.47574 4990 ft 205 kts 123°
2026-05-08 15:46 26.01906 -79.46230 4989 ft 205 kts 123°
2026-05-08 15:46 26.01151 -79.44885 4988 ft 205 kts 123°
2026-05-08 15:46 26.00396 -79.43542 4989 ft 205 kts 123°
2026-05-08 15:46 25.99642 -79.42199 4991 ft 205 kts 123°
2026-05-08 15:47 25.98886 -79.40861 4991 ft 204 kts 123°
2026-05-08 15:47 25.98133 -79.39523 4992 ft 204 kts 122°
2026-05-08 15:47 25.97407 -79.38167 4981 ft 204 kts 115°
2026-05-08 15:47 25.97018 -79.36652 4986 ft 204 kts 97°
2026-05-08 15:48 25.96874 -79.33507 4989 ft 204 kts 94°
2026-05-08 15:48 25.96755 -79.31932 4990 ft 204 kts 96°
2026-05-08 15:48 25.96585 -79.30366 4989 ft 204 kts 98°
2026-05-08 15:49 25.96374 -79.28808 4994 ft 204 kts 99°
2026-05-08 15:49 25.96144 -79.27253 4988 ft 204 kts 99°
2026-05-08 15:49 25.95909 -79.25701 4991 ft 203 kts 99°
2026-05-08 15:49 25.95676 -79.24153 4988 ft 203 kts 99°
2026-05-08 15:50 25.95448 -79.22604 4991 ft 203 kts 99°
2026-05-08 15:50 25.95226 -79.21073 4989 ft 203 kts 99°
2026-05-08 15:50 25.95007 -79.19522 4989 ft 203 kts 99°
2026-05-08 15:50 25.94792 -79.17970 4991 ft 203 kts 99°
2026-05-08 15:51 25.94579 -79.16417 4989 ft 203 kts 99°
2026-05-08 15:51 25.94370 -79.14863 4990 ft 203 kts 98°
2026-05-08 15:51 25.94173 -79.13308 4990 ft 203 kts 97°
2026-05-08 15:51 25.93794 -79.11803 4988 ft 203 kts 115°
2026-05-08 15:52 25.93019 -79.10503 4995 ft 202 kts 133°
2026-05-08 15:52 25.92008 -79.09423 5000 ft 202 kts 137°
2026-05-08 15:52 25.91007 -79.08325 4991 ft 202 kts 134°
2026-05-08 15:52 25.90058 -79.07167 4989 ft 203 kts 131°
2026-05-08 15:53 25.89165 -79.05951 4975 ft 203 kts 128°
2026-05-08 15:53 25.88323 -79.04694 4987 ft 203 kts 126°
2026-05-08 15:53 25.87514 -79.03412 4992 ft 203 kts 125°
2026-05-08 15:53 25.86721 -79.02120 4990 ft 203 kts 124°
2026-05-08 15:54 25.85925 -79.00826 4990 ft 204 kts 125°
2026-05-08 15:54 25.85116 -78.99533 4991 ft 204 kts 126°
2026-05-08 15:54 25.84290 -78.98256 4992 ft 204 kts 127°
2026-05-08 15:54 25.83449 -78.96993 5000 ft 203 kts 127°
2026-05-08 15:55 25.82598 -78.95741 5000 ft 203 kts 128°
2026-05-08 15:55 25.80886 -78.93241 4998 ft 204 kts 128°
2026-05-08 15:55 25.80030 -78.91990 5000 ft 204 kts 128°
2026-05-08 15:56 25.79173 -78.90735 4992 ft 204 kts 128°
2026-05-08 15:56 25.78318 -78.89478 4989 ft 204 kts 127°
2026-05-08 15:56 25.77464 -78.88220 4990 ft 204 kts 127°
2026-05-08 15:56 25.76609 -78.86959 4990 ft 204 kts 127°
2026-05-08 15:57 25.75756 -78.85700 4992 ft 204 kts 127°
2026-05-08 15:57 25.74903 -78.84439 4989 ft 204 kts 127°
2026-05-08 15:57 25.74051 -78.83177 4990 ft 204 kts 127°
2026-05-08 15:57 25.73199 -78.81915 4991 ft 204 kts 127°
2026-05-08 15:58 25.72344 -78.80653 4989 ft 205 kts 127°
2026-05-08 15:58 25.71491 -78.79391 4992 ft 204 kts 127°
2026-05-08 15:58 25.70639 -78.78133 4999 ft 204 kts 127°
2026-05-08 15:58 25.69788 -78.76875 5000 ft 204 kts 127°
2026-05-08 15:59 25.68935 -78.75616 5000 ft 204 kts 127°
2026-05-08 15:59 25.68083 -78.74357 4999 ft 204 kts 127°
2026-05-08 15:59 25.67230 -78.73099 4999 ft 204 kts 127°
2026-05-08 15:59 25.66389 -78.71856 5000 ft 204 kts 127°
2026-05-08 16:00 25.65523 -78.70579 4999 ft 204 kts 127°
2026-05-08 16:00 25.64681 -78.69338 5000 ft 204 kts 127°
2026-05-08 16:00 25.63827 -78.68079 4998 ft 204 kts 127°
2026-05-08 16:00 25.62974 -78.66821 5000 ft 204 kts 127°
2026-05-08 16:01 25.62120 -78.65564 5000 ft 204 kts 127°
2026-05-08 16:01 25.61267 -78.64306 5000 ft 204 kts 127°
2026-05-08 16:01 25.60414 -78.63048 5000 ft 204 kts 127°
2026-05-08 16:01 25.59559 -78.61789 5000 ft 204 kts 128°
2026-05-08 16:02 25.58706 -78.60534 4998 ft 204 kts 128°
2026-05-08 16:02 25.57851 -78.59276 4997 ft 204 kts 127°
2026-05-08 16:02 25.56995 -78.58017 4999 ft 204 kts 128°
2026-05-08 16:02 25.56141 -78.56760 4999 ft 204 kts 127°
2026-05-08 16:03 25.55286 -78.55503 5000 ft 204 kts 127°
2026-05-08 16:03 25.54431 -78.54247 5000 ft 204 kts 128°
2026-05-08 16:03 25.53574 -78.52988 5000 ft 204 kts 127°
2026-05-08 16:03 25.52719 -78.51732 5000 ft 204 kts 128°
2026-05-08 16:04 25.51864 -78.50475 4998 ft 204 kts 128°
2026-05-08 16:04 25.51009 -78.49220 5001 ft 204 kts 128°
2026-05-08 16:04 25.50154 -78.47965 4999 ft 204 kts 128°
2026-05-08 16:04 25.49299 -78.46711 4999 ft 204 kts 128°
2026-05-08 16:05 25.48443 -78.45454 5000 ft 204 kts 128°
2026-05-08 16:05 25.47588 -78.44199 4999 ft 204 kts 128°
2026-05-08 16:05 25.46733 -78.42945 5007 ft 204 kts 128°
2026-05-08 16:05 25.45878 -78.41694 5009 ft 204 kts 128°
2026-05-08 16:06 25.45024 -78.40441 5009 ft 204 kts 128°
2026-05-08 16:06 25.44169 -78.39187 5008 ft 204 kts 128°
2026-05-08 16:06 25.43313 -78.37934 5008 ft 204 kts 128°
2026-05-08 16:06 25.42467 -78.36696 5010 ft 204 kts 128°
2026-05-08 16:07 25.41611 -78.35442 5009 ft 204 kts 128°
2026-05-08 16:07 25.40755 -78.34189 5007 ft 204 kts 128°
2026-05-08 16:07 25.39898 -78.32933 5007 ft 204 kts 128°
2026-05-08 16:07 25.39042 -78.31680 5009 ft 204 kts 128°
2026-05-08 16:08 25.38185 -78.30428 5010 ft 204 kts 128°
2026-05-08 16:08 25.37328 -78.29175 5007 ft 204 kts 128°
2026-05-08 16:08 25.36471 -78.27921 5008 ft 204 kts 128°
2026-05-08 16:08 25.35614 -78.26669 5008 ft 204 kts 128°
2026-05-08 16:09 25.34755 -78.25416 5012 ft 204 kts 128°
2026-05-08 16:09 25.34176 -78.24574 5008 ft 204 kts 128°
2026-05-08 16:09 25.33041 -78.22923 5008 ft 204 kts 127°
2026-05-08 16:09 25.32186 -78.21675 5008 ft 204 kts 127°
2026-05-08 16:10 25.31332 -78.20427 5009 ft 204 kts 127°
2026-05-08 16:10 25.30478 -78.19179 5009 ft 204 kts 127°
2026-05-08 16:10 25.29620 -78.17930 5008 ft 204 kts 126°
2026-05-08 16:10 25.28869 -78.16605 5009 ft 204 kts 118°
2026-05-08 16:11 25.28275 -78.15184 5009 ft 204 kts 112°
2026-05-08 16:11 25.27800 -78.13705 5009 ft 204 kts 108°
2026-05-08 16:11 25.27365 -78.12213 5009 ft 204 kts 108°
2026-05-08 16:11 25.26935 -78.10719 5007 ft 204 kts 108°
2026-05-08 16:12 25.26498 -78.09228 5011 ft 204 kts 108°
2026-05-08 16:12 25.26045 -78.07742 5005 ft 204 kts 109°
2026-05-08 16:12 25.25574 -78.06260 5007 ft 204 kts 110°
2026-05-08 16:12 25.25089 -78.04789 5013 ft 204 kts 111°
2026-05-08 16:13 25.24588 -78.03326 5019 ft 204 kts 111°
2026-05-08 16:13 25.24073 -78.01866 5020 ft 204 kts 112°
2026-05-08 16:13 25.23548 -78.00415 5017 ft 204 kts 112°
2026-05-08 16:13 25.23014 -77.98961 5019 ft 204 kts 112°
2026-05-08 16:14 25.22591 -77.97470 5018 ft 204 kts 104°
2026-05-08 16:14 25.22128 -77.95995 5026 ft 203 kts 113°
2026-05-08 16:14 25.21539 -77.94577 5024 ft 203 kts 116°
2026-05-08 16:14 25.20936 -77.93162 5025 ft 203 kts 115°
2026-05-08 16:15 25.20369 -77.91733 5026 ft 203 kts 113°
2026-05-08 16:15 25.19829 -77.90288 5025 ft 204 kts 112°
2026-05-08 16:15 25.19302 -77.88832 5023 ft 204 kts 112°
2026-05-08 16:15 25.18779 -77.87379 5027 ft 204 kts 112°
2026-05-08 16:16 25.18252 -77.85923 5025 ft 204 kts 112°
2026-05-08 16:16 25.17725 -77.84469 5024 ft 204 kts 112°
2026-05-08 16:16 25.17195 -77.83016 5027 ft 204 kts 112°
2026-05-08 16:16 25.16666 -77.81563 5024 ft 204 kts 112°
2026-05-08 16:17 25.16138 -77.80109 5024 ft 204 kts 112°
2026-05-08 16:17 25.15788 -77.79148 5027 ft 204 kts 112°
2026-05-08 16:17 25.15079 -77.77203 5026 ft 204 kts 112°
2026-05-08 16:17 25.14549 -77.75748 5025 ft 204 kts 112°
2026-05-08 16:18 25.14199 -77.74786 5023 ft 204 kts 112°
2026-05-08 16:18 25.13670 -77.73333 5024 ft 204 kts 112°
2026-05-08 16:18 25.13156 -77.71873 5024 ft 204 kts 111°
2026-05-08 16:18 25.12554 -77.70464 5025 ft 204 kts 128°
2026-05-08 16:19 25.11453 -77.69499 4812 ft 203 kts 155°
2026-05-08 16:19 25.10139 -77.68924 4579 ft 203 kts 160°
2026-05-08 16:19 25.08810 -77.68388 4085 ft 202 kts 161°
2026-05-08 16:19 25.07508 -77.67864 3599 ft 196 kts 160°
2026-05-08 16:20 25.06248 -77.67335 3093 ft 192 kts 160°
2026-05-08 16:20 25.05106 -77.66743 2934 ft 169 kts 143°
2026-05-08 16:20 25.04359 -77.65874 2963 ft 145 kts 128°
2026-05-08 16:20 25.03859 -77.65015 2995 ft 122 kts 119°
2026-05-08 16:21 25.03571 -77.64150 2938 ft 125 kts 100°
2026-05-08 16:21 25.03511 -77.63127 2786 ft 142 kts 93°
2026-05-08 16:21 25.03495 -77.61968 2559 ft 160 kts 91°
2026-05-08 16:21 25.03493 -77.60694 2315 ft 169 kts 90°
2026-05-08 16:22 25.03498 -77.59405 2083 ft 167 kts 90°
2026-05-08 16:22 25.03511 -77.58164 1852 ft 153 kts 89°
2026-05-08 16:22 25.03528 -77.56981 1647 ft 160 kts 89°
2026-05-08 16:22 25.03545 -77.55687 1373 ft 171 kts 89°
2026-05-08 16:23 25.03550 -77.54395 1212 ft 169 kts 88°
2026-05-08 16:23 25.03559 -77.53155 925 ft 149 kts 88°
2026-05-08 16:23 25.03564 -77.52157 728 ft 115 kts 88°
2026-05-08 16:23 25.03570 -77.51293 647 ft 114 kts 87°
2026-05-08 16:24 25.03577 -77.50393 431 ft 120 kts 88°
2026-05-08 16:24 25.03581 -77.49513 282 ft 107 kts 87°
2026-05-08 16:24 25.03587 -77.48702 141 ft 105 kts 88°
2026-05-08 16:24 25.03594 -77.47909 17 ft 99 kts 88°
2026-05-08 16:25 25.03601 -77.47226 7 ft 81 kts 90°
2026-05-08 16:25 25.03600 -77.46694 6 ft 59 kts 89°
2026-05-08 16:25 25.03603 -77.46292 7 ft 46 kts 90°
2026-05-08 16:25 25.03633 -77.46084 6 ft 24 kts 41°
2026-05-08 16:26 25.03686 -77.46025 6 ft 1 kts 49°
2026-05-08 16:26 25.03739 -77.45960 7 ft 17 kts 44°
2026-05-08 16:26 25.03835 -77.45866 7 ft 20 kts 21°
2026-05-08 16:26 25.03954 -77.45941 7 ft 22 kts 316°
2026-05-08 16:27 25.04064 -77.46063 7 ft 23 kts 311°
2026-05-08 16:27 25.04175 -77.46181 7 ft 10 kts 340°
2026-05-08 16:27 25.04206 -77.46162 7 ft 12 kts 60°
2026-05-08 16:27 25.04268 -77.46087 7 ft 11 kts 330°
2026-05-08 16:28 25.04282 -77.46101 7 ft 0 kts 292°
2026-05-08 16:33 25.04282 -77.46100 7 ft 0 kts 292°